Time,TemperatureF,DewpointF,PressureIn,WindDirection,WindDirectionDegrees,WindSpeedMPH,WindSpeedGustMPH,Humidity,HourlyPrecipIn,Conditions,Clouds,dailyrainin,SoftwareType,DateUTC
2013-03-20 00:02:00,44.0,42.0,-100.00,NE,45,1.0,4.0,93,-99.99,,,-99.99,,2013-03-20 07:02:00,
2013-03-20 00:12:00,44.0,42.0,-100.00,NE,45,1.0,4.0,93,-99.99,,,-99.99,,2013-03-20 07:12:00,
2013-03-20 00:22:00,44.0,42.0,-100.00,NE,45,0.0,4.0,93,-99.99,,,-99.99,,2013-03-20 07:22:00,
2013-03-20 00:32:00,44.0,42.0,-100.00,SE,135,0.0,2.0,93,-99.99,,,-99.99,,2013-03-20 07:32:00,
2013-03-20 00:42:00,44.0,42.0,-100.00,SE,135,0.0,2.0,93,-99.99,,,-99.99,,2013-03-20 07:42:00,
2013-03-20 00:52:00,44.0,42.0,-100.00,NE,45,0.0,2.0,93,-99.99,,,-99.99,,2013-03-20 07:52:00,
2013-03-20 01:02:00,44.0,42.0,-100.00,NE,45,0.0,2.0,93,-99.99,,,-99.99,,2013-03-20 08:02:00,
2013-03-20 01:12:00,44.0,42.0,-100.00,NE,45,0.0,2.0,93,-99.99,,,-99.99,,2013-03-20 08:12:00,
2013-03-20 01:22:00,44.0,42.0,-100.00,NE,45,0.0,1.0,93,-99.99,,,-99.99,,2013-03-20 08:22:00,
2013-03-20 01:32:00,44.0,42.0,-100.00,NE,45,1.0,3.0,93,-99.99,,,-99.99,,2013-03-20 08:32:00,
2013-03-20 01:42:00,44.0,42.0,-100.00,NE,45,1.0,3.0,93,-99.99,,,-99.99,,2013-03-20 08:42:00,
2013-03-20 01:52:00,44.0,42.0,-100.00,NE,45,1.0,3.0,93,-99.99,,,-99.99,,2013-03-20 08:52:00,
2013-03-20 02:02:00,44.0,42.0,-100.00,NE,45,1.0,3.0,93,-99.99,,,-99.99,,2013-03-20 09:02:00,
2013-03-20 02:12:00,44.0,42.0,-100.00,NE,45,1.0,3.0,93,-99.99,,,-99.99,,2013-03-20 09:12:00,
2013-03-20 02:22:00,45.0,43.0,-100.00,NE,45,2.0,5.0,93,-99.99,,,-99.99,,2013-03-20 09:22:00,
2013-03-20 02:32:00,45.0,43.0,-100.00,NE,45,2.0,5.0,93,-99.99,,,-99.99,,2013-03-20 09:32:00,
2013-03-20 02:43:00,45.0,43.0,-100.00,East,90,0.0,4.0,93,-99.99,,,-99.99,,2013-03-20 09:43:00,
2013-03-20 02:53:00,45.0,43.0,-100.00,NE,45,0.0,4.0,93,-99.99,,,-99.99,,2013-03-20 09:53:00,
2013-03-20 03:03:00,45.0,43.0,-100.00,NE,45,1.0,4.0,93,-99.99,,,-99.99,,2013-03-20 10:03:00,
2013-03-20 03:12:00,45.0,43.0,-100.00,NE,45,1.0,4.0,93,-99.99,,,-99.99,,2013-03-20 10:12:00,
2013-03-20 03:22:00,45.0,43.0,-100.00,NE,45,0.0,4.0,93,-99.99,,,-99.99,,2013-03-20 10:22:00,
2013-03-20 03:32:00,45.0,43.0,-100.00,NE,45,0.0,3.0,93,-99.99,,,-99.99,,2013-03-20 10:32:00,
2013-03-20 03:53:00,45.0,43.0,-100.00,SE,135,1.0,3.0,93,-99.99,,,-99.99,,2013-03-20 10:53:00,
2013-03-20 04:02:00,45.0,44.0,-100.00,NE,45,0.0,3.0,93,-99.99,,,-99.99,,2013-03-20 11:02:00,
2013-03-20 04:12:00,45.0,44.0,-100.00,NE,45,0.0,3.0,93,-99.99,,,-99.99,,2013-03-20 11:12:00,
2013-03-20 04:22:00,45.0,44.0,-100.00,NE,45,3.0,7.0,93,-99.99,,,-99.99,,2013-03-20 11:22:00,
2013-03-20 04:32:00,46.0,44.0,-100.00,NE,45,3.0,6.0,93,-99.99,,,-99.99,,2013-03-20 11:32:00,
2013-03-20 04:42:00,46.0,44.0,-100.00,NE,45,3.0,6.0,93,-99.99,,,-99.99,,2013-03-20 11:42:00,
2013-03-20 04:52:00,46.0,44.0,-100.00,North,0,4.0,6.0,93,-99.99,,,-99.99,,2013-03-20 11:52:00,
2013-03-20 05:02:00,46.0,44.0,-100.00,South,180,1.0,4.0,93,-99.99,,,-99.99,,2013-03-20 12:02:00,
2013-03-20 05:12:00,46.0,44.0,-100.00,South,180,1.0,4.0,93,-99.99,,,-99.99,,2013-03-20 12:12:00,
2013-03-20 05:22:00,47.0,45.0,-100.00,NE,45,3.0,6.0,93,-99.99,,,-99.99,,2013-03-20 12:22:00,
2013-03-20 05:32:00,47.0,45.0,-100.00,North,0,1.0,4.0,93,-99.99,,,-99.99,,2013-03-20 12:32:00,
2013-03-20 05:42:00,47.0,45.0,-100.00,North,0,1.0,4.0,93,-99.99,,,-99.99,,2013-03-20 12:42:00,
2013-03-20 05:52:00,48.0,46.0,-100.00,North,0,2.0,6.0,93,-99.99,,,-99.99,,2013-03-20 12:52:00,
2013-03-20 06:02:00,48.0,46.0,-100.00,NE,45,1.0,6.0,93,-99.99,,,-99.99,,2013-03-20 13:02:00,
2013-03-20 06:12:00,48.0,46.0,-100.00,NE,45,1.0,6.0,93,-99.99,,,-99.99,,2013-03-20 13:12:00,
2013-03-20 06:22:00,49.0,47.0,-100.00,South,180,2.0,8.0,93,-99.99,,,-99.99,,2013-03-20 13:22:00,
2013-03-20 06:32:00,49.0,47.0,-100.00,SW,225,1.0,8.0,93,-99.99,,,-99.99,,2013-03-20 13:32:00,
2013-03-20 06:42:00,49.0,47.0,-100.00,SW,225,1.0,8.0,93,-99.99,,,-99.99,,2013-03-20 13:42:00,
2013-03-20 06:53:00,49.0,47.0,-100.00,South,180,1.0,6.0,93,-99.99,,,-99.99,,2013-03-20 13:53:00,
2013-03-20 07:02:00,49.0,47.0,-100.00,South,180,1.0,9.0,93,-99.99,,,-99.99,,2013-03-20 14:02:00,
2013-03-20 07:12:00,49.0,47.0,-100.00,South,180,1.0,9.0,93,-99.99,,,-99.99,,2013-03-20 14:12:00,
2013-03-20 07:22:00,48.0,46.0,-100.00,SW,225,0.0,4.0,93,-99.99,,,-99.99,,2013-03-20 14:22:00,
2013-03-20 07:33:00,48.0,46.0,-100.00,West,270,1.0,4.0,93,-99.99,,,-99.99,,2013-03-20 14:33:00,
2013-03-20 07:42:00,48.0,46.0,-100.00,West,270,1.0,4.0,93,-99.99,,,-99.99,,2013-03-20 14:42:00,
2013-03-20 07:52:00,48.0,46.0,-100.00,SW,225,1.0,4.0,93,-99.99,,,-99.99,,2013-03-20 14:52:00,
2013-03-20 08:02:00,47.0,45.0,-100.00,South,180,1.0,7.0,93,-99.99,,,-99.99,,2013-03-20 15:02:00,
2013-03-20 08:12:00,47.0,45.0,-100.00,South,180,1.0,7.0,93,-99.99,,,-99.99,,2013-03-20 15:12:00,
2013-03-20 08:22:00,47.0,45.0,-100.00,South,180,1.0,7.0,93,-99.99,,,-99.99,,2013-03-20 15:22:00,
2013-03-20 08:33:00,45.0,44.0,-100.00,SW,225,2.0,6.0,93,-99.99,,,-99.99,,2013-03-20 15:33:00,
2013-03-20 08:43:00,45.0,44.0,-100.00,SW,225,2.0,6.0,93,-99.99,,,-99.99,,2013-03-20 15:43:00,
2013-03-20 08:53:00,44.0,42.0,-100.00,South,180,4.0,14.0,93,-99.99,,,-99.99,,2013-03-20 15:53:00,
2013-03-20 09:02:00,44.0,42.0,-100.00,South,180,3.0,6.0,93,-99.99,,,-99.99,,2013-03-20 16:02:00,
2013-03-20 09:12:00,44.0,42.0,-100.00,South,180,3.0,6.0,93,-99.99,,,-99.99,,2013-03-20 16:12:00,
2013-03-20 09:23:00,43.0,41.0,-100.00,SW,225,2.0,9.0,93,-99.99,,,-99.99,,2013-03-20 16:23:00,
2013-03-20 09:32:00,43.0,41.0,-100.00,South,180,2.0,7.0,93,-99.99,,,-99.99,,2013-03-20 16:32:00,
2013-03-20 09:42:00,43.0,41.0,-100.00,South,180,2.0,7.0,93,-99.99,,,-99.99,,2013-03-20 16:42:00,
2013-03-20 09:53:00,43.0,41.0,-100.00,South,180,2.0,8.0,93,-99.99,,,-99.99,,2013-03-20 16:53:00,
2013-03-20 10:02:00,43.0,41.0,-100.00,SW,225,0.0,6.0,93,-99.99,,,-99.99,,2013-03-20 17:02:00,
2013-03-20 10:12:00,43.0,41.0,-100.00,SW,225,0.0,6.0,93,-99.99,,,-99.99,,2013-03-20 17:12:00,
2013-03-20 10:22:00,43.0,41.0,-100.00,South,180,2.0,6.0,93,-99.99,,,-99.99,,2013-03-20 17:22:00,
2013-03-20 10:32:00,43.0,41.0,-100.00,South,180,1.0,4.0,93,-99.99,,,-99.99,,2013-03-20 17:32:00,
2013-03-20 10:42:00,43.0,41.0,-100.00,South,180,1.0,4.0,93,-99.99,,,-99.99,,2013-03-20 17:42:00,
2013-03-20 10:53:00,43.0,41.0,-100.00,South,180,2.0,4.0,93,-99.99,,,-99.99,,2013-03-20 17:53:00,
2013-03-20 11:02:00,43.0,41.0,-100.00,South,180,1.0,9.0,92,-99.99,,,-99.99,,2013-03-20 18:02:00,
2013-03-20 11:12:00,43.0,41.0,-100.00,South,180,1.0,9.0,92,-99.99,,,-99.99,,2013-03-20 18:12:00,
2013-03-20 11:22:00,43.0,40.0,-100.00,South,180,2.0,7.0,90,-99.99,,,-99.99,,2013-03-20 18:22:00,
2013-03-20 11:32:00,43.0,40.0,-100.00,SE,135,3.0,6.0,87,-99.99,,,-99.99,,2013-03-20 18:32:00,
2013-03-20 11:42:00,43.0,40.0,-100.00,SE,135,3.0,6.0,87,-99.99,,,-99.99,,2013-03-20 18:42:00,
2013-03-20 11:52:00,44.0,39.0,-100.00,South,180,3.0,12.0,84,-99.99,,,-99.99,,2013-03-20 18:52:00,
2013-03-20 12:02:00,45.0,39.0,-100.00,South,180,3.0,18.0,80,-99.99,,,-99.99,,2013-03-20 19:02:00,
2013-03-20 12:12:00,45.0,39.0,-100.00,South,180,3.0,18.0,80,-99.99,,,-99.99,,2013-03-20 19:12:00,
2013-03-20 12:22:00,44.0,38.0,-100.00,SE,135,3.0,11.0,80,-99.99,,,-99.99,,2013-03-20 19:22:00,
2013-03-20 12:32:00,45.0,39.0,-100.00,South,180,1.0,9.0,78,-99.99,,,-99.99,,2013-03-20 19:32:00,
2013-03-20 12:42:00,45.0,39.0,-100.00,South,180,1.0,9.0,78,-99.99,,,-99.99,,2013-03-20 19:42:00,
2013-03-20 12:53:00,43.0,38.0,-100.00,South,180,1.0,4.0,82,-99.99,,,-99.99,,2013-03-20 19:53:00,
2013-03-20 13:02:00,43.0,38.0,-100.00,South,180,1.0,4.0,82,-99.99,,,-99.99,,2013-03-20 20:02:00,
2013-03-20 13:12:00,43.0,38.0,-100.00,South,180,1.0,4.0,82,-99.99,,,-99.99,,2013-03-20 20:12:00,
2013-03-20 13:22:00,42.0,39.0,-100.00,South,180,2.0,6.0,89,-99.99,,,-99.99,,2013-03-20 20:22:00,
2013-03-20 13:32:00,42.0,40.0,-100.00,South,180,1.0,4.0,90,-99.99,,,-99.99,,2013-03-20 20:32:00,
2013-03-20 13:42:00,42.0,40.0,-100.00,South,180,1.0,4.0,90,-99.99,,,-99.99,,2013-03-20 20:42:00,
2013-03-20 13:53:00,42.0,40.0,-100.00,South,180,3.0,6.0,91,-99.99,,,-99.99,,2013-03-20 20:53:00,
2013-03-20 14:02:00,42.0,40.0,-100.00,South,180,2.0,4.0,91,-99.99,,,-99.99,,2013-03-20 21:02:00,
2013-03-20 14:12:00,42.0,40.0,-100.00,South,180,2.0,4.0,91,-99.99,,,-99.99,,2013-03-20 21:12:00,
2013-03-20 14:22:00,43.0,41.0,-100.00,East,90,1.0,9.0,91,-99.99,,,-99.99,,2013-03-20 21:22:00,
2013-03-20 14:33:00,42.0,39.0,-100.00,South,180,3.0,9.0,91,-99.99,,,-99.99,,2013-03-20 21:33:00,
2013-03-20 14:42:00,42.0,39.0,-100.00,South,180,3.0,9.0,91,-99.99,,,-99.99,,2013-03-20 21:42:00,
2013-03-20 14:52:00,42.0,39.0,-100.00,SW,225,2.0,4.0,91,-99.99,,,-99.99,,2013-03-20 21:52:00,
2013-03-20 15:02:00,42.0,40.0,-100.00,SW,225,1.0,6.0,92,-99.99,,,-99.99,,2013-03-20 22:02:00,
2013-03-20 15:12:00,42.0,40.0,-100.00,SW,225,1.0,6.0,92,-99.99,,,-99.99,,2013-03-20 22:12:00,
2013-03-20 15:23:00,42.0,40.0,-100.00,South,180,2.0,6.0,92,-99.99,,,-99.99,,2013-03-20 22:23:00,
2013-03-20 15:32:00,41.0,39.0,-100.00,South,180,3.0,6.0,92,-99.99,,,-99.99,,2013-03-20 22:32:00,
2013-03-20 15:42:00,41.0,39.0,-100.00,South,180,3.0,6.0,92,-99.99,,,-99.99,,2013-03-20 22:42:00,
2013-03-20 15:52:00,41.0,39.0,-100.00,South,180,2.0,12.0,92,-99.99,,,-99.99,,2013-03-20 22:52:00,
2013-03-20 16:02:00,41.0,39.0,-100.00,South,180,1.0,6.0,92,-99.99,,,-99.99,,2013-03-20 23:02:00,
2013-03-20 16:12:00,41.0,39.0,-100.00,South,180,1.0,6.0,92,-99.99,,,-99.99,,2013-03-20 23:12:00,
2013-03-20 16:22:00,41.0,39.0,-100.00,South,180,1.0,5.0,92,-99.99,,,-99.99,,2013-03-20 23:22:00,
2013-03-20 16:32:00,39.0,37.0,-100.00,South,180,2.0,6.0,92,-99.99,,,-99.99,,2013-03-20 23:32:00,
2013-03-20 16:42:00,39.0,37.0,-100.00,South,180,2.0,6.0,92,-99.99,,,-99.99,,2013-03-20 23:42:00,
2013-03-20 16:52:00,40.0,38.0,-100.00,South,180,2.0,4.0,92,-99.99,,,-99.99,,2013-03-20 23:52:00,
2013-03-20 17:02:00,40.0,38.0,-100.00,South,180,2.0,4.0,92,-99.99,,,-99.99,,2013-03-21 00:02:00,
2013-03-20 17:12:00,40.0,38.0,-100.00,South,180,2.0,4.0,92,-99.99,,,-99.99,,2013-03-21 00:12:00,
2013-03-20 17:22:00,41.0,38.0,-100.00,South,180,1.0,7.0,92,-99.99,,,-99.99,,2013-03-21 00:22:00,
2013-03-20 17:32:00,41.0,38.0,-100.00,South,180,1.0,7.0,92,-99.99,,,-99.99,,2013-03-21 00:32:00,
2013-03-20 17:42:00,41.0,38.0,-100.00,South,180,1.0,7.0,92,-99.99,,,-99.99,,2013-03-21 00:42:00,
2013-03-20 17:52:00,39.0,37.0,-100.00,South,180,2.0,6.0,92,-99.99,,,-99.99,,2013-03-21 00:52:00,
2013-03-20 18:02:00,39.0,37.0,-100.00,South,180,2.0,4.0,92,-99.99,,,-99.99,,2013-03-21 01:02:00,
2013-03-20 18:12:00,39.0,37.0,-100.00,South,180,2.0,4.0,92,-99.99,,,-99.99,,2013-03-21 01:12:00,
2013-03-20 18:22:00,39.0,37.0,-100.00,South,180,1.0,4.0,92,-99.99,,,-99.99,,2013-03-21 01:22:00,
2013-03-20 18:32:00,39.0,37.0,-100.00,South,180,1.0,4.0,92,-99.99,,,-99.99,,2013-03-21 01:32:00,
2013-03-20 18:42:00,39.0,37.0,-100.00,South,180,1.0,4.0,92,-99.99,,,-99.99,,2013-03-21 01:42:00,
2013-03-20 18:53:00,39.0,37.0,-100.00,South,180,2.0,4.0,92,-99.99,,,-99.99,,2013-03-21 01:53:00,
2013-03-20 19:02:00,39.0,37.0,-100.00,South,180,0.0,3.0,92,-99.99,,,-99.99,,2013-03-21 02:02:00,
2013-03-20 19:12:00,39.0,37.0,-100.00,South,180,0.0,3.0,92,-99.99,,,-99.99,,2013-03-21 02:12:00,
2013-03-20 19:22:00,39.0,37.0,-100.00,South,180,0.0,2.0,92,-99.99,,,-99.99,,2013-03-21 02:22:00,
2013-03-20 19:32:00,39.0,37.0,-100.00,South,180,2.0,6.0,92,-99.99,,,-99.99,,2013-03-21 02:32:00,
2013-03-20 19:42:00,39.0,37.0,-100.00,South,180,2.0,6.0,92,-99.99,,,-99.99,,2013-03-21 02:42:00,
2013-03-20 19:52:00,39.0,37.0,-100.00,South,180,2.0,6.0,92,-99.99,,,-99.99,,2013-03-21 02:52:00,
2013-03-20 20:02:00,36.0,34.0,-100.00,South,180,4.0,11.0,92,-99.99,,,-99.99,,2013-03-21 03:02:00,
2013-03-20 20:12:00,36.0,34.0,-100.00,South,180,4.0,11.0,92,-99.99,,,-99.99,,2013-03-21 03:12:00,
2013-03-20 20:22:00,36.0,34.0,-100.00,South,180,2.0,6.0,92,-99.99,,,-99.99,,2013-03-21 03:22:00,
2013-03-20 20:32:00,36.0,34.0,-100.00,South,180,1.0,3.0,92,-99.99,,,-99.99,,2013-03-21 03:32:00,
2013-03-20 20:43:00,36.0,34.0,-100.00,South,180,1.0,3.0,92,-99.99,,,-99.99,,2013-03-21 03:43:00,
2013-03-20 20:53:00,36.0,34.0,-100.00,South,180,2.0,4.0,92,-99.99,,,-99.99,,2013-03-21 03:53:00,
2013-03-20 21:02:00,36.0,34.0,-100.00,South,180,1.0,4.0,92,-99.99,,,-99.99,,2013-03-21 04:02:00,
2013-03-20 21:12:00,36.0,34.0,-100.00,South,180,1.0,4.0,92,-99.99,,,-99.99,,2013-03-21 04:12:00,
2013-03-20 21:22:00,36.0,34.0,-100.00,South,180,1.0,2.0,92,-99.99,,,-99.99,,2013-03-21 04:22:00,
2013-03-20 21:32:00,37.0,35.0,-100.00,South,180,0.0,1.0,92,-99.99,,,-99.99,,2013-03-21 04:32:00,
2013-03-20 21:43:00,37.0,35.0,-100.00,South,180,0.0,1.0,92,-99.99,,,-99.99,,2013-03-21 04:43:00,
2013-03-20 21:53:00,36.0,34.0,-100.00,South,180,0.0,2.0,92,-99.99,,,-99.99,,2013-03-21 04:53:00,
2013-03-20 22:02:00,36.0,34.0,-100.00,North,-999,0.0,0.0,92,-99.99,,,-99.99,,2013-03-21 05:02:00,
2013-03-20 22:12:00,36.0,34.0,-100.00,North,-999,0.0,0.0,92,-99.99,,,-99.99,,2013-03-21 05:12:00,
2013-03-20 22:22:00,36.0,34.0,-100.00,North,-999,0.0,0.0,92,-99.99,,,-99.99,,2013-03-21 05:22:00,
2013-03-20 22:32:00,35.0,33.0,-100.00,North,-999,0.0,0.0,92,-99.99,,,-99.99,,2013-03-21 05:32:00,
2013-03-20 22:43:00,35.0,33.0,-100.00,North,-999,0.0,0.0,92,-99.99,,,-99.99,,2013-03-21 05:43:00,
2013-03-20 22:52:00,36.0,34.0,-100.00,North,-999,0.0,0.0,92,-99.99,,,-99.99,,2013-03-21 05:52:00,
2013-03-20 23:02:00,36.0,34.0,-100.00,South,180,0.0,1.0,92,-99.99,,,-99.99,,2013-03-21 06:02:00,
2013-03-20 23:12:00,36.0,34.0,-100.00,South,180,0.0,1.0,92,-99.99,,,-99.99,,2013-03-21 06:12:00,
2013-03-20 23:22:00,36.0,34.0,-100.00,South,180,0.0,3.0,92,-99.99,,,-99.99,,2013-03-21 06:22:00,
2013-03-20 23:32:00,35.0,33.0,-100.00,South,180,0.0,5.0,92,-99.99,,,-99.99,,2013-03-21 06:32:00,
2013-03-20 23:42:00,35.0,33.0,-100.00,South,180,0.0,5.0,92,-99.99,,,-99.99,,2013-03-21 06:42:00,
2013-03-20 23:52:00,35.0,33.0,-100.00,South,180,0.0,5.0,92,-99.99,,,-99.99,,2013-03-21 06:52:00,